Simultaneous Nadir Overpasses (SNOs) Predictions

Prediction of SNOs between GOES-16 and NOAA-20 Satellite Orbit:

Table of predicted SNOs for the next 14.0 days since TLE Epoch: 2/10/2024
Index Date Time (GOES-16) GOES-16 Lat,Lon NOAA-20 Lat,Lon Distance(km) Time Diff (sec)
1 02/11/2024 18:27:00 0.07, -75.22 -0.07, -75.74 60.50 80
2 02/12/2024 18:10:56 0.06, -75.23 0.94, -71.21 456.87 80
3 02/14/2024 06:32:44 -0.06, -75.23 0.22, -76.48 142.74 80
4 02/15/2024 06:11:20 -0.06, -75.24 -0.79, -71.95 374.80 80
5 02/16/2024 18:33:17 0.06, -75.27 -0.36, -77.26 226.90 80
6 02/17/2024 18:17:12 0.06, -75.28 0.65, -72.73 291.10 80
7 02/19/2024 06:39:00 -0.05, -75.30 0.56, -77.99 307.34 80
8 02/20/2024 06:17:35 -0.05, -75.31 -0.46, -73.46 210.84 80
9 02/21/2024 18:39:31 0.04, -75.35 -0.74, -78.76 389.88 80
10 02/22/2024 18:23:27 0.03, -75.37 0.29, -74.23 129.03 80
